Location: Unspecified
(0.0000°N, 0.0000°E)
Time: 19:37:41
(UTC+00:00)

Tiangong - Visible Passes

Search period start: 01 December 2021 00:00
Search period end: 11 December 2021 00:00
Orbit: 380 x 384 km, 41.5° (Epoch: 01 December)

Date Brightness Start Highest point End Pass type
(mag) Time Alt. Az. Time Alt. Az. Time Alt. Az.
02 Dec 3.8 18:32:20 10° WNW 18:34:02 14° NW 18:35:43 10° N visible
03 Dec 3.5 04:26:12 14° NNE 04:27:10 15° NE 04:29:07 10° E visible
04 Dec 1.1 05:01:19 18° WNW 05:03:28 62° SW 05:06:34 10° SE visible
05 Dec 3.1 04:04:12 28° E 04:04:12 28° E 04:06:05 10° ESE visible
06 Dec 2.6 04:39:12 22° SW 04:39:21 22° SW 04:41:53 10° S visible
07 Dec 4.5 03:41:56 11° SE 03:41:56 11° SE 03:42:04 10° SE visible
